User: anonymous   Login
Location: Haulchin
(50.3172°N, 3.4360°E)
Time: 05:34:08
(UTC+00:00)
Language:

Cosmos 1833 - Orbit

View from above orbital plane
View from above orbital plane
View from above satellite
View from above satellite

Ground track
Ground track

The orbit data is extracted from the following two-line orbital elements,

1 17589U 87027A   24205.49605626  .00000229  00000-0  14839-3 0  9996
2 17589  70.9152 134.9217 0021278  16.3922 343.7882 14.12958612926377
Epoch (UTC): 23 July 2024 11:54:19
Eccentricity: 0.0021278
inclination: 70.9152°
perigee height: 834 km
apogee height: 864 km
right ascension of ascending node: 134.9217°
argument of perigee: 16.3922°
revolutions per day: 14.12958612
mean anomaly at epoch: 343.7882°
orbit number at epoch: 92637

The dashed part of the orbit path shows where the satellite is in the earth's shadow,  

DLR